Location: Cassano d�Adda
(45.5333°N, 9.5167°E)
Time: 13:14:39
(UTC+00:00)

Cosmos 2251 Rocket - Pass Details

Date: 08 December 2019
Orbit: 765 x 791 km, 74.0° (Epoch: 16 January)

Event Time Altitude Azimuth Distance (km) Brightness Sun altitude
Rises 16:50:12 0° 193° (SSW) 3,256 7.2 -12.1°
Reaches altitude 10° 16:52:35 10° 191° (S) 2,329 6.4 -12.5°
Maximum altitude 16:57:51 72° 108° (ESE) 821 3.5 -13.3°
Drops below altitude 10° 17:03:07 10° 25° (NNE) 2,328 5.6 -14.2°
Enters shadow 17:03:16 - 25° (NNE) 2,388 5.7 -14.2°
